• In Deutschland
  • Länderverzeichnis
  • Für 7 Tage
  • Wassertemperatur
  • Satellitenkarten
  • Wetterkarte
  • Widgets
  • user-avatar
    Anmelden

    Stündliche Wetter Melbourne

    Heute, 21 August, Montag

    Zeit Temperatur Niederschläge Wind Luftdruck Luftfeuchtigkeit
    00:00 +7°C° 0 mm 2 m/S 762 mmHg 75%
    01:00 +7°C° 0 mm 2 m/S 762 mmHg 75%
    02:00 +7°C° 0 mm 3 m/S 762 mmHg 75%
    03:00 +7°C° 0 mm 3 m/S 761 mmHg 74%
    04:00 +6°C° 0 mm 4 m/S 761 mmHg 70%
    05:00 +6°C° 0,1 mm 4 m/S 761 mmHg 73%
    06:00 +6°C° 0,1 mm 4 m/S 761 mmHg 76%
    07:00 +5°C° 0,1 mm 4 m/S 760 mmHg 79%
    08:00 +6°C° 0,3 mm 4 m/S 760 mmHg 80%
    09:00 +6°C° 0,3 mm 4 m/S 760 mmHg 82%
    10:00 +7°C° 0 mm 3 m/S 761 mmHg 84%
    11:00 +8°C° 0,2 mm 3 m/S 760 mmHg 80%
    12:00 +9°C° 0,2 mm 3 m/S 760 mmHg 77%
    13:00 +10°C° 0,2 mm 3 m/S 760 mmHg 73%
    14:00 +10°C° 0 mm 3 m/S 760 mmHg 69%
    15:00 +11°C° 0 mm 3 m/S 759 mmHg 65%
    16:00 +12°C° 0 mm 3 m/S 759 mmHg 61%
    17:00 +10°C° 0 mm 3 m/S 759 mmHg 68%
    18:00 +9°C° 0 mm 2 m/S 760 mmHg 75%
    19:00 +7°C° 0 mm 2 m/S 760 mmHg 82%
    20:00 +7°C° 0 mm 2 m/S 760 mmHg 83%
    21:00 +7°C° 0 mm 2 m/S 761 mmHg 83%
    22:00 +7°C° 0 mm 2 m/S 761 mmHg 84%
    23:00 +7°C° 0 mm 2 m/S 761 mmHg 85%

    Morgen, 22 August, Dienstag

    Zeit Temperatur Niederschläge Wind Luftdruck Luftfeuchtigkeit
    00:00 +6°C° 0 mm 2 m/S 761 mmHg 87%
    01:00 +6°C° 0 mm 2 m/S 761 mmHg 89%
    02:00 +6°C° 0 mm 2 m/S 761 mmHg 89%
    03:00 +6°C° 0 mm 2 m/S 761 mmHg 90%
    04:00 +6°C° 0 mm 2 m/S 761 mmHg 91%
    05:00 +5°C° 0 mm 2 m/S 762 mmHg 91%
    06:00 +5°C° 0 mm 2 m/S 762 mmHg 92%
    07:00 +5°C° 0 mm 2 m/S 762 mmHg 93%
    08:00 +7°C° 0 mm 2 m/S 763 mmHg 84%
    09:00 +10°C° 0 mm 2 m/S 763 mmHg 75%
    10:00 +13°C° 0 mm 2 m/S 763 mmHg 66%
    11:00 +14°C° 0 mm 2 m/S 763 mmHg 62%
    12:00 +15°C° 0 mm 2 m/S 762 mmHg 58%
    13:00 +17°C° 0 mm 2 m/S 762 mmHg 54%
    14:00 +17°C° 0 mm 2 m/S 762 mmHg 56%
    15:00 +16°C° 0 mm 2 m/S 762 mmHg 58%
    16:00 +16°C° 0 mm 2 m/S 762 mmHg 60%
    17:00 +15°C° 0 mm 2 m/S 762 mmHg 67%
    18:00 +13°C° 0 mm 2 m/S 762 mmHg 74%
    19:00 +10°C° 0 mm 2 m/S 763 mmHg 81%
    20:00 +10°C° 0 mm 2 m/S 763 mmHg 83%
    21:00 +9°C° 0 mm 2 m/S 763 mmHg 86%
    22:00 +9°C° 0 mm 3 m/S 764 mmHg 88%
    23:00 +8°C° 0 mm 3 m/S 764 mmHg 88%

    übermorgen, 23 August, Mittwoch

    Zeit Temperatur Niederschläge Wind Luftdruck Luftfeuchtigkeit
    00:00 +8°C° 0 mm 3 m/S 764 mmHg 89%
    01:00 +8°C° 0 mm 3 m/S 763 mmHg 89%
    02:00 +8°C° 0 mm 3 m/S 763 mmHg 89%
    03:00 +8°C° 0 mm 3 m/S 763 mmHg 89%
    04:00 +8°C° 0 mm 3 m/S 763 mmHg 89%
    05:00 +8°C° 0 mm 3 m/S 763 mmHg 88%
    06:00 +8°C° 0 mm 3 m/S 763 mmHg 88%
    07:00 +8°C° 0 mm 3 m/S 763 mmHg 87%
    08:00 +10°C° 0 mm 4 m/S 763 mmHg 82%
    09:00 +11°C° 0 mm 4 m/S 763 mmHg 77%
    10:00 +13°C° 0 mm 4 m/S 763 mmHg 72%
    11:00 +13°C° 0 mm 5 m/S 762 mmHg 69%
    12:00 +14°C° 0 mm 5 m/S 762 mmHg 66%
    13:00 +15°C° 0 mm 5 m/S 761 mmHg 63%
    14:00 +14°C° 0,8 mm 5 m/S 761 mmHg 69%
    15:00 +14°C° 0,8 mm 5 m/S 761 mmHg 75%
    16:00 +13°C° 0,8 mm 5 m/S 761 mmHg 81%
    17:00 +12°C° 1,8 mm 5 m/S 762 mmHg 85%
    18:00 +9°C° 1,8 mm 5 m/S 762 mmHg 88%
    19:00 +8°C° 1,8 mm 4 m/S 763 mmHg 91%
    20:00 +7°C° 0 mm 4 m/S 764 mmHg 91%
    21:00 +8°C° 0 mm 3 m/S 764 mmHg 90%
    22:00 +7°C° 0 mm 3 m/S 765 mmHg 90%
    23:00 +5°C° 0 mm 3 m/S 765 mmHg 90%

    24 August, Donnerstag

    Zeit Temperatur Niederschläge Wind Luftdruck Luftfeuchtigkeit
    00:00 +5°C° 0 mm 3 m/S 765 mmHg 90%
    01:00 +5°C° 0 mm 3 m/S 765 mmHg 90%
    02:00 +5°C° 0 mm 3 m/S 765 mmHg 91%
    03:00 +5°C° 0 mm 2 m/S 765 mmHg 91%
    04:00 +5°C° 0 mm 2 m/S 765 mmHg 91%
    05:00 +4°C° 0 mm 3 m/S 765 mmHg 92%
    06:00 +4°C° 0 mm 3 m/S 765 mmHg 92%
    07:00 +4°C° 0 mm 3 m/S 766 mmHg 92%
    08:00 +7°C° 0,1 mm 3 m/S 766 mmHg 88%
    09:00 +8°C° 0,1 mm 3 m/S 766 mmHg 84%
    10:00 +10°C° 0,1 mm 4 m/S 766 mmHg 81%
    11:00 +11°C° 0,1 mm 4 m/S 766 mmHg 74%
    12:00 +12°C° 0,1 mm 4 m/S 766 mmHg 68%
    13:00 +13°C° 0,1 mm 4 m/S 765 mmHg 62%
    14:00 +13°C° 0,1 mm 4 m/S 765 mmHg 62%
    15:00 +12°C° 0,1 mm 4 m/S 765 mmHg 62%
    16:00 +12°C° 0,1 mm 4 m/S 765 mmHg 62%
    17:00 +11°C° 0 mm 3 m/S 766 mmHg 70%
    18:00 +9°C° 0 mm 3 m/S 766 mmHg 78%
    19:00 +7°C° 0 mm 2 m/S 767 mmHg 86%
    20:00 +7°C° 0 mm 2 m/S 767 mmHg 88%
    21:00 +7°C° 0 mm 2 m/S 767 mmHg 90%
    22:00 +6°C° 0 mm 2 m/S 768 mmHg 91%
    23:00 +6°C° 0 mm 2 m/S 767 mmHg 92%

    25 August, Freitag

    Zeit Temperatur Niederschläge Wind Luftdruck Luftfeuchtigkeit
    00:00 +6°C° 0 mm 2 m/S 767 mmHg 92%
    01:00 +6°C° 0 mm 2 m/S 767 mmHg 92%
    02:00 +6°C° 0 mm 2 m/S 767 mmHg 93%
    03:00 +5°C° 0 mm 2 m/S 767 mmHg 93%
    04:00 +5°C° 0 mm 2 m/S 767 mmHg 94%
    05:00 +5°C° 0 mm 2 m/S 767 mmHg 94%
    06:00 +5°C° 0 mm 2 m/S 767 mmHg 94%
    07:00 +5°C° 0 mm 2 m/S 767 mmHg 93%
    08:00 +7°C° 0 mm 2 m/S 767 mmHg 84%
    09:00 +9°C° 0 mm 2 m/S 767 mmHg 74%
    10:00 +13°C° 0 mm 2 m/S 767 mmHg 64%
    11:00 +14°C° 0 mm 2 m/S 767 mmHg 59%
    12:00 +15°C° 0 mm 2 m/S 766 mmHg 54%
    13:00 +16°C° 0 mm 2 m/S 765 mmHg 49%
    14:00 +14°C° 0 mm 3 m/S 765 mmHg 50%
    15:00 +14°C° 0 mm 3 m/S 765 mmHg 52%
    16:00 +14°C° 0 mm 3 m/S 764 mmHg 54%
    17:00 +13°C° 0 mm 3 m/S 765 mmHg 59%
    18:00 +11°C° 0 mm 3 m/S 765 mmHg 65%
    19:00 +10°C° 0 mm 3 m/S 765 mmHg 70%
    20:00 +9°C° 0 mm 3 m/S 766 mmHg 74%
    21:00 +8°C° 0 mm 3 m/S 766 mmHg 77%
    22:00 +8°C° 0 mm 3 m/S 766 mmHg 80%
    23:00 +7°C° 0 mm 3 m/S 765 mmHg 80%

    26 August, Samstag

    Zeit Temperatur Niederschläge Wind Luftdruck Luftfeuchtigkeit
    00:00 +7°C° 0 mm 3 m/S 765 mmHg 81%
    01:00 +7°C° 0 mm 3 m/S 765 mmHg 82%
    02:00 +6°C° 0 mm 4 m/S 764 mmHg 83%
    03:00 +6°C° 0 mm 4 m/S 764 mmHg 84%
    04:00 +5°C° 0 mm 4 m/S 764 mmHg 84%
    05:00 +6°C° 0,1 mm 4 m/S 764 mmHg 86%
    06:00 +6°C° 0,1 mm 4 m/S 765 mmHg 87%
    07:00 +6°C° 0,1 mm 4 m/S 765 mmHg 89%
    08:00 +6°C° 0,7 mm 4 m/S 766 mmHg 89%
    09:00 +7°C° 0,7 mm 4 m/S 766 mmHg 89%
    10:00 +7°C° 0,7 mm 4 m/S 767 mmHg 90%
    11:00 +8°C° 0,1 mm 4 m/S 767 mmHg 81%
    12:00 +10°C° 0,1 mm 4 m/S 767 mmHg 73%
    13:00 +10°C° 0,1 mm 5 m/S 767 mmHg 64%
    14:00 +10°C° 0,1 mm 5 m/S 767 mmHg 63%
    15:00 +9°C° 0,1 mm 5 m/S 767 mmHg 61%
    16:00 +9°C° 0,1 mm 5 m/S 767 mmHg 59%
    17:00 +8°C° 0,1 mm 4 m/S 768 mmHg 66%
    18:00 +7°C° 0,1 mm 4 m/S 768 mmHg 73%
    19:00 +5°C° 0,1 mm 3 m/S 769 mmHg 80%
    20:00 +5°C° 0,1 mm 3 m/S 769 mmHg 82%
    21:00 +4°C° 0,1 mm 3 m/S 770 mmHg 84%
    22:00 +4°C° 0,1 mm 3 m/S 770 mmHg 87%
    23:00 +4°C° 0,1 mm 3 m/S 770 mmHg 87%
    Mehr zeigen